FW3743 Weather Reports


Display with metric or nautical units.
time (UTC)temp
F
wind
direction
speed
MPH
gust
MPH
rain 1hr
in
rain 24hr
in
rain mn
in
humidity
%
barometer
mb
20260505085433 60 0.0 0.0 0.00 0.00 0.00 89 1004.0
20260505084434 60 0.0 0.0 0.00 0.00 0.00 88 1004.0
20260505083432 62 303 0.0 5.0 0.00 0.00 0.00 84 1004.0
20260505082434 63 290 0.0 11.0 0.00 0.00 0.00 77 1004.5
20260505081433 63 290 2.0 15.0 0.00 0.00 0.00 73 1004.4
20260505080433 64 324 0.0 1.0 0.00 0.00 0.00 67 1004.4
20260505075453 64 156 0.0 2.0 0.00 0.00 0.00 68 1004.4
20260505074434 64 0.0 0.0 0.00 0.00 0.00 68 1004.2
20260505073432 63 274 0.0 1.0 0.00 0.00 0.00 69 1004.0
20260505072434 63 0.0 0.0 0.00 0.00 0.00 71 1004.3
20260505071433 63 0.0 0.0 0.00 0.00 0.00 71 1004.2
20260505070434 63 0.0 0.0 0.00 0.00 0.00 71 1004.3
20260505065433 64 0.0 0.0 0.00 0.00 0.00 70 1003.8
20260505064434 64 286 0.0 10.0 0.00 0.00 0.00 68 1004.0
20260505063433 65 280 0.0 5.0 0.00 0.00 0.00 65 1004.0
20260505062433 65 249 1.0 10.0 0.00 0.00 0.00 62 1004.0
20260505061432 66 278 0.0 2.0 0.00 0.00 0.00 61 1004.2
20260505060433 66 30 0.0 7.0 0.00 0.00 0.00 59 1004.1
20260505055433 66 265 0.0 8.0 0.00 0.00 0.00 57 1004.1
20260505054434 66 275 0.0 4.0 0.00 0.00 0.00 57 1004.0
20260505053433 65 30 0.0 4.0 0.00 0.00 0.00 58 1004.2
20260505052433 64 0.0 0.0 0.00 0.00 0.00 57 1004.1
20260505051432 65 0.0 0.0 0.00 0.00 0.00 57 1004.3
20260505050434 64 0.0 0.0 0.00 0.00 0.00 58 1004.2
20260505041433 65 0.0 0.0 0.00 0.00 0.00 54 1004.0
20260505040454 64 0.0 0.0 0.00 0.00 0.00 54 1004.1
20260505035433 65 0.0 0.0 0.00 0.00 0.00 54 1004.1
20260505034434 65 0.0 0.0 0.00 0.00 0.00 53 1004.0
20260505033433 65 0.0 0.0 0.00 0.00 0.00 52 1004.0
20260505032454 65 0.0 0.0 0.00 0.00 0.00 53 1004.0
20260505031433 65 0.0 0.0 0.00 0.00 0.00 53 1003.9
20260505030514 65 0.0 0.0 0.00 0.00 0.00 53 1003.9
20260505025433 64 0.0 0.0 0.00 0.00 0.00 53 1004.0
20260505024433 64 0.0 0.0 0.00 0.00 0.00 53 1004.0
20260505023433 64 0.0 0.0 0.00 0.00 0.00 53 1004.1
20260505022434 63 0.0 0.0 0.00 0.00 0.00 53 1004.3
20260505021433 62 0.0 0.0 0.00 0.00 0.00 55 1004.1
20260505020434 62 0.0 0.0 0.00 0.00 0.00 55 1004.3
20260505015433 62 0.0 0.0 0.00 0.00 0.00 56 1004.1
20260505014434 62 0.0 0.0 0.00 0.01 0.00 55 1004.2
20260505013433 61 0.0 0.0 0.00 0.01 0.00 58 1004.2
20260505012434 59 0.0 0.0 0.00 0.01 0.00 66 1004.2
20260505011434 58 0.0 0.0 0.00 0.01 0.00 70 1004.3
20260505010454 58 0.0 0.0 0.00 0.01 0.00 67 1004.2
20260505005433 59 0.0 0.0 0.00 0.01 0.00 65 1004.2
20260505004454 60 0.0 0.0 0.00 0.01 0.00 63 1004.2
20260505003453 61 0.0 0.0 0.00 0.01 0.00 60 1004.2
20260505002454 63 0.0 0.0 0.00 0.01 0.00 56 1004.0
20260505001433 65 0.0 0.0 0.00 0.01 0.00 51 1004.1
20260505000514 67 0.0 0.0 0.00 0.01 0.00 46 1004.0
20260504235433 69 0.0 0.0 0.00 0.01 0.00 43 1004.1
20260504234434 71 0.0 0.0 0.00 0.01 0.00 40 1004.0
20260504233453 71 0.0 0.0 0.00 0.01 0.00 40 1003.7
20260504232434 72 0.0 0.0 0.00 0.01 0.00 38 1003.7
20260504231433 73 0.0 0.0 0.00 0.01 0.00 38 1003.7
20260504230434 74 0.0 0.0 0.00 0.01 0.00 37 1003.7
20260504225433 75 0.0 0.0 0.00 0.01 0.00 38 1004.0
20260504224434 74 0.0 0.0 0.00 0.01 0.00 37 1004.1
20260504223433 75 0.0 0.0 0.00 0.01 0.00 38 1004.1
20260504222434 74 285 0.0 2.0 0.00 0.01 0.00 38 1003.9
20260504221433 74 264 1.0 11.0 0.00 0.01 0.00 38 1004.2
20260504220434 74 312 0.0 8.0 0.00 0.01 0.00 38 1004.0
20260504215433 74 290 0.0 5.0 0.00 0.01 0.00 40 1004.2
20260504214434 74 282 0.0 7.0 0.00 0.01 0.00 40 1004.1
20260504213453 74 265 2.0 7.0 0.00 0.01 0.00 40 1004.4
20260504212433 74 74 2.0 12.0 0.00 0.01 0.00 39 1004.1
20260504211433 73 309 0.0 5.0 0.00 0.01 0.00 40 1004.4
20260504210434 74 272 0.0 8.0 0.00 0.01 0.00 42 1004.2
20260504205433 73 285 1.0 12.0 0.00 0.01 0.00 42 1004.3
20260504204434 74 283 2.0 8.0 0.00 0.01 0.00 42 1004.4
20260504203434 74 291 1.0 8.0 0.00 0.01 0.00 42 1004.5
20260504202434 73 326 1.0 7.0 0.00 0.01 0.00 42 1004.6
20260504201433 73 279 0.0 4.0 0.00 0.01 0.00 43 1004.6
20260504200434 72 24 0.0 7.0 0.00 0.01 0.00 44 1005.0
20260504195433 73 310 1.0 8.0 0.00 0.01 0.00 44 1005.1
20260504194433 73 279 0.0 8.0 0.00 0.01 0.00 45 1005.0
20260504193433 72 300 2.0 12.0 0.00 0.01 0.00 46 1005.4
20260504192433 73 270 1.0 8.0 0.00 0.01 0.00 46 1005.2
20260504191433 72 307 2.0 8.0 0.00 0.01 0.00 46 1005.5
20260504190434 72 332 2.0 12.0 0.00 0.01 0.00 46 1005.7
20260504185433 73 304 2.0 11.0 0.00 0.01 0.00 47 1005.7
20260504184433 71 0.0 0.0 0.00 0.01 0.00 50 1005.7
20260504183433 72 0.0 0.0 0.00 0.01 0.00 48 1005.8
20260504182435 71 290 0.0 8.0 0.00 0.01 0.00 48 1006.0
20260504181433 71 292 2.0 7.0 0.00 0.01 0.00 49 1006.2
20260504180433 70 327 0.0 1.0 0.00 0.01 0.00 51 1006.0
20260504175433 70 22 0.0 1.0 0.00 0.01 0.00 50 1006.4
20260504174434 69 295 2.0 14.0 0.00 0.01 0.00 51 1006.3
20260504173433 69 294 2.0 10.0 0.00 0.01 0.00 50 1006.5
20260504172434 69 272 3.0 12.0 0.00 0.01 0.00 51 1006.6
20260504171433 68 329 1.0 7.0 0.00 0.01 0.00 51 1006.6
20260504170433 67 345 1.0 8.0 0.00 0.01 0.00 53 1006.8
20260504160434 65 325 1.0 8.0 0.00 0.01 0.00 54 1006.9
20260504150434 62 317 0.0 2.0 0.00 0.01 0.00 55 1007.7
20260504140433 60 242 2.0 10.0 0.00 0.01 0.00 55 1007.9
20260504130453 55 0.0 0.0 0.00 0.01 0.00 60 1008.3
20260504110433 54 0.0 0.0 0.00 0.01 0.00 60 1008.5
20260504100434 53 300 0.0 5.0 0.00 0.01 0.00 59 1008.4